Scroll for more >

River gauges, storages, and weirs in the Murray–Darling Basin

Typesort descending Location River Water level Flow Volume Release Water temp Salinity Rainfall
River Gauge Mulwala Canal Murray Not measured Not measured Not measured 3000.2 ML/d21/02/2018 7:45 Not measured Not measured Not measured Full data
River Gauge Peechelba Ovens 126.4 m 21/02/2018 15:45 458 ML/Day 21/02/2018 15:45 Not measured Not measured 24.0°C 21/02/2018 15:45 64.1 μS/cm 21/02/2018 15:45 Not measured Full data
River Gauge Rochester Campaspe 2.43 m 21/02/2018 15:45 614 ML/Day 21/02/2018 15:45 Not measured Not measured 23.1°C 21/02/2018 15:45 397.6 μS/cm 21/02/2018 15:45 0.0 mm 21/02/2018 9:00 Full data
River Gauge Lake Albert Murray 0.58 m 21/02/2018 5:45 Not measured 241 GL 21/02/2018 5:45 Not measured Not measured Not measured Not measured Full data
River Gauge Rufus River Murray 20.64 m 21/02/2018 7:45 Not measured Not measured 1862.0 ML/d21/02/2018 7:45 Not measured 234.4 μS/cm 21/02/2018 12:45 Not measured Full data
River Gauge Jingellic Murray 1.08 m 21/02/2018 15:45 952 ML/Day 21/02/2018 15:45 Not measured Not measured 24.1°C 21/02/2018 15:45 43.1 μS/cm 21/02/2018 15:45 0.0 mm 21/02/2018 9:00 Full data
River Gauge Hinnomunjie Mitta 0.51 m 21/02/2018 15:45 182 ML/Day 21/02/2018 15:45 Not measured Not measured 22.2°C 21/02/2018 15:45 34.0 μS/cm 21/02/2018 15:45 0.0 mm 21/02/2018 9:00 Full data
River Gauge Colignan Murray 1.95 m 21/02/2018 15:45 6349 ML/Day 21/02/2018 15:45 Not measured Not measured 27.0°C 21/02/2018 15:45 107.6 μS/cm 21/02/2018 15:45 Not measured Full data
River Gauge Tocumwal Murray 1.98 m 21/02/2018 15:45 7724 ML/Day 21/02/2018 15:45 Not measured Not measured 24.6°C 21/02/2018 15:45 58.5 μS/cm 21/02/2018 15:45 Not measured Full data
River Gauge Edward Escape Wakool 0.08 m 21/02/2018 15:45 16 ML/Day 21/02/2018 15:45 Not measured Not measured 24.3°C 21/02/2018 15:45 60.8 μS/cm 21/02/2018 15:45 Not measured Full data
River Gauge Wilcania Darling -0.24 m 21/02/2018 15:45 1 ML/Day 21/02/2018 15:45 Not measured Not measured 35.4°C 21/02/2018 16:00 0.0 μS/cm 21/02/2018 15:45 Not measured Full data
River Gauge Tauwitchere Barrage Murray 0.6 m 21/02/2018 14:45 Not measured Not measured Not measured Not measured Not measured Not measured Full data
River Gauge Edward River Offtake Murray 2.46 m 21/02/2018 16:30 1647 ML/Day 21/02/2018 16:30 Not measured Not measured 25.3°C 21/02/2018 15:45 44.7 μS/cm 21/02/2018 15:45 Not measured Full data
River Gauge Mundoo Barrage Murray 0.56 m 21/02/2018 7:45 Not measured Not measured Not measured Not measured Not measured Not measured Full data
River Gauge Doctors Point Murray 2.87 m 21/02/2018 16:00 13555 ML/Day 21/02/2018 16:00 Not measured Not measured 22.9°C 21/02/2018 16:00 53.8 μS/cm 21/02/2018 16:00 Not measured Full data
River Gauge Morgan Downstream Murray Not measured Not measured Not measured 3886.4 ML/d21/02/2018 14:45 Not measured 338.0 μS/cm 21/02/2018 12:45 Not measured Full data
River Gauge Gulpa Creek Offtake Murray 2.6 m 21/02/2018 16:00 388 ML/Day 21/02/2018 16:00 Not measured Not measured Not measured Not measured Not measured Full data
River Gauge Weir 32 Upstream Darling 1.35 m 21/02/2018 15:45 209 ML/Day 21/02/2018 15:45 Not measured Not measured 27.1°C 21/02/2018 15:45 616.8 μS/cm 21/02/2018 15:45 Not measured Full data
River Gauge Flow to South Australia Murray Not measured Not measured Not measured 6926.6 ML/d21/02/2018 7:45 Not measured Not measured Not measured Full data
River Gauge Torrumbarry Headworks Murray 84.99 m 21/02/2018 15:45 Not measured Not measured 1974.4 ML/d21/02/2018 15:45 Not measured Not measured Not measured Full data
River Gauge Albury (Union Bridge) Murray 1.88 m 21/02/2018 16:00 Not measured Not measured Not measured 22.8°C 21/02/2018 16:00 60.1 μS/cm 21/02/2018 16:00 Not measured Full data
River Gauge Colemans Mitta 1.02 m 21/02/2018 16:30 320 ML/Day 21/02/2018 16:30 Not measured Not measured 16.0°C 15/02/2018 3:45 54.8 μS/cm 15/02/2018 3:45 Not measured Full data
River Gauge Echuca Wharf Murray 87.03 m 21/02/2018 14:45 Not measured Not measured Not measured Not measured Not measured Not measured Full data
River Gauge Wakool Canal Wakool 0.66 m 21/02/2018 15:45 Not measured Not measured 671.1 ML/d21/02/2018 8:45 Not measured Not measured Not measured Full data
River Gauge Burtundy Darling 0.67 m 21/02/2018 16:00 47 ML/Day 21/02/2018 16:00 Not measured Not measured 28.8°C 21/02/2018 15:45 639.2 μS/cm 21/02/2018 15:45 Not measured Full data
River Gauge Stoney Crossing Murray 1.43 m 21/02/2018 15:45 450 ML/Day 21/02/2018 15:45 Not measured 435.4 ML/d21/02/2018 7:45 26.0°C 21/02/2018 15:45 254.9 μS/cm 21/02/2018 15:45 Not measured Full data
River Gauge Corowa Murray 2.58 m 21/02/2018 16:00 11460 ML/Day 21/02/2018 16:00 Not measured Not measured 23.7°C 21/02/2018 16:00 51.8 μS/cm 21/02/2018 16:00 Not measured Full data
River Gauge Colemans Mitta 1.02 m 21/02/2018 16:30 320 ML/Day 21/02/2018 16:30 Not measured Not measured 16.0°C 15/02/2018 3:45 54.8 μS/cm 15/02/2018 3:45 Not measured Full data
River Gauge Tallandoon Mitta 1.34 m 21/02/2018 15:45 498 ML/Day 21/02/2018 15:45 Not measured Not measured 21.9°C 21/02/2018 15:45 53.2 μS/cm 21/02/2018 15:45 Not measured Full data
River Gauge Biggara Murray 0.28 m 21/02/2018 16:00 225 ML/Day 21/02/2018 16:00 Not measured Not measured 21.6°C 21/02/2018 16:00 2.1 μS/cm 21/02/2018 16:00 0.0 mm 21/02/2018 9:00 Full data
River Gauge McCoy Bridge Goulburn 2.11 m 21/02/2018 15:45 2061 ML/Day 21/02/2018 15:45 Not measured Not measured 24.6°C 21/02/2018 15:45 45.6 μS/cm 21/02/2018 15:45 Not measured Full data
River Gauge Swan Hill Murray 1.37 m 21/02/2018 15:45 7157 ML/Day 21/02/2018 15:45 Not measured Not measured 25.6°C 21/02/2018 15:45 115.6 μS/cm 21/02/2018 15:45 Not measured Full data
River Gauge Tallandoon Mitta 1.34 m 21/02/2018 15:45 498 ML/Day 21/02/2018 15:45 Not measured Not measured 21.9°C 21/02/2018 15:45 53.2 μS/cm 21/02/2018 15:45 Not measured Full data
River Gauge Murray Bridge Murray 0.61 m 21/02/2018 14:45 Not measured Not measured Not measured 23.4°C 21/02/2018 14:45 302.5 μS/cm 21/02/2018 14:45 Not measured Full data
River Gauge Frenchman Creek Murray 27.39 m 21/02/2018 7:45 Not measured Not measured 229.0 ML/d21/02/2018 7:45 Not measured Not measured Not measured Full data
River Gauge Bringenbrong Bridge Murray 0.86 m 21/02/2018 16:00 654 ML/Day 21/02/2018 16:00 Not measured Not measured Not measured Not measured Not measured Full data
River Gauge Bandiana Kiewa 0.99 m 21/02/2018 15:45 486 ML/Day 21/02/2018 15:45 Not measured Not measured 23.5°C 21/02/2018 15:45 39.2 μS/cm 21/02/2018 15:45 Not measured Full data
River Gauge Wakool Junction Murray 2.96 m 21/02/2018 15:45 7486 ML/Day 21/02/2018 15:45 Not measured Not measured 26.0°C 21/02/2018 15:45 119.2 μS/cm 21/02/2018 15:45 Not measured Full data
River Gauge Yarrawonga Main Channel Murray 123.72 m 21/02/2018 15:45 Not measured Not measured 1100.0 ML/d21/02/2018 7:45 Not measured Not measured Not measured Full data
River Gauge Balranald Murrumbidgee 0.62 m 21/02/2018 15:45 287 ML/Day 21/02/2018 15:45 Not measured Not measured 26.3°C 21/02/2018 15:45 221.5 μS/cm 21/02/2018 15:45 Not measured Full data
River Gauge Lake Alexandrina Murray 0.63 m 21/02/2018 5:45 Not measured 1531 GL 21/02/2018 5:45 Not measured Not measured 723.8 μS/cm 21/02/2018 14:45 Not measured Full data
River Gauge Pinegrove Murray 0.99 m 21/02/2018 16:00 167 ML/Day 21/02/2018 16:00 Not measured Not measured 22.5°C 21/02/2018 16:00 73.7 μS/cm 21/02/2018 16:00 0.0 mm 21/02/2018 9:00 Full data
River Gauge Kerang Loddon 0.34 m 21/02/2018 15:45 148 ML/Day 21/02/2018 15:45 Not measured Not measured 24.9°C 21/02/2018 15:45 136.2 μS/cm 21/02/2018 15:45 Not measured Full data
Storage Hume Dam Murray 184.13 m 21/02/2018 16:15 Not measured 1661 GL 21/02/2018 16:15 11911.0 ML/d21/02/2018 8:00 Not measured Not measured 0.0 mm 21/02/2018 9:00 Full data
Storage Dartmouth Dam Mitta 479.21 m 21/02/2018 16:30 Not measured 3426 GL 21/02/2018 16:30 Not measured Not measured Not measured Not measured Full data
Storage Menindee Lakes Darling Not measured Not measured 329 GL 21/02/2018 7:45 Not measured Not measured Not measured Not measured Full data
Storage Dartmouth Dam Mitta 479.21 m 21/02/2018 16:30 Not measured 3426 GL 21/02/2018 16:30 Not measured Not measured Not measured Not measured Full data
Storage Lake Victoria Murray 24.58 m 21/02/2018 14:45 Not measured 404 GL 21/02/2018 14:45 Not measured 23.8°C 21/02/2018 14:45 228.3 μS/cm 21/02/2018 14:45 Not measured Full data
Weirs Lock 4 Downstream Murray 10.51 m 21/02/2018 14:45 Not measured Not measured Not measured Not measured Not measured Not measured Full data
Weirs Euston Weir Downstream Murray 43.27 m 21/02/2018 15:45 6971 ML/Day 21/02/2018 15:45 Not measured Not measured 25.7°C 21/02/2018 15:45 117.0 μS/cm 21/02/2018 15:45 Not measured Full data
Weirs Torrumbarry Weir Upstream Murray 86.05 m 21/02/2018 15:30 Not measured 37 GL 21/02/2018 7:45 Not measured 24.7°C 21/02/2018 7:45 88.0 μS/cm 21/02/2018 7:45 0.0 mm 20/02/2018 9:00 Full data
Weirs Lock 3 Upstream Murray 9.86 m 21/02/2018 14:45 Not measured Not measured Not measured Not measured Not measured Not measured Full data
Weirs Lock 4 Upstream Murray 13.26 m 21/02/2018 14:45 Not measured Not measured Not measured Not measured Not measured Not measured Full data
Weirs Lock 7 Downstream Murray 20.46 m 21/02/2018 14:45 Not measured Not measured Not measured Not measured Not measured Not measured Full data
Weirs Torrumbarry Weir Upstream Murray 86.05 m 21/02/2018 15:30 Not measured 37 GL 21/02/2018 7:45 Not measured 24.7°C 21/02/2018 7:45 88.0 μS/cm 21/02/2018 7:45 0.0 mm 20/02/2018 9:00 Full data
Weirs Lock 2 Downstream Murray 3.32 m 21/02/2018 14:45 Not measured Not measured Not measured Not measured Not measured Not measured Full data
Weirs Lock 2 Upstream Murray 6.14 m 21/02/2018 14:45 Not measured Not measured Not measured 25.5°C 21/02/2018 14:45 323.4 μS/cm 21/02/2018 14:45 Not measured Full data
Weirs Lock 3 Downstream Murray 6.38 m 21/02/2018 14:45 Not measured Not measured Not measured Not measured Not measured Not measured Full data
Weirs Mildura Weir downstream Murray 30.97 m 21/02/2018 15:45 Not measured Not measured Not measured 26.5°C 21/02/2018 15:45 194.5 μS/cm 21/02/2018 15:45 Not measured Full data
Weirs Steven's Weir Upstream Wakool 4.67 m 21/02/2018 16:15 Not measured Not measured Not measured Not measured Not measured Not measured Full data
Weirs Lock 7 Upstream Murray 22.03 m 21/02/2018 14:45 Not measured Not measured Not measured 26.1°C 21/02/2018 14:45 191.3 μS/cm 21/02/2018 14:45 Not measured Full data
Weirs Torrumbarry Weir Upstream Murray 86.05 m 21/02/2018 15:30 Not measured 37 GL 21/02/2018 7:45 Not measured 24.7°C 21/02/2018 7:45 88.0 μS/cm 21/02/2018 7:45 0.0 mm 20/02/2018 9:00 Full data
Weirs Lock 9 Downstream Murray 24.59 m 21/02/2018 14:45 Not measured Not measured Not measured Not measured Not measured Not measured Full data
Weirs Steven's Weir Downstream Wakool 1.07 m 21/02/2018 15:45 728 ML/Day 21/02/2018 15:45 Not measured Not measured 25.3°C 21/02/2018 15:45 53.6 μS/cm 21/02/2018 15:45 0.0 mm 20/02/2018 9:00 Full data
Weirs Wentworth Weir Murray 27.55 m 21/02/2018 15:45 Not measured Not measured 5013.2 ML/d21/02/2018 7:45 Not measured 166.0 μS/cm 21/02/2018 7:45 0.0 mm 20/02/2018 9:00 Full data
Weirs Lock 1 Downstream Murray 0.68 m 21/02/2018 14:45 Not measured Not measured 5220.0 ML/d21/02/2018 7:45 Not measured Not measured Not measured Full data
Weirs Lock 9 Upstream Murray 27.36 m 21/02/2018 14:45 Not measured Not measured Not measured 26.7°C 21/02/2018 14:45 187.9 μS/cm 21/02/2018 14:45 Not measured Full data
Weirs Lock 6 Downstream Murray 16.34 m 21/02/2018 14:45 Not measured Not measured Not measured Not measured Not measured Not measured Full data
Weirs Lock 1 Upstream Murray 3.12 m 21/02/2018 14:45 Not measured Not measured Not measured 24.5°C 21/02/2018 14:45 332.1 μS/cm 21/02/2018 14:45 Not measured Full data
Weirs Lock 8 Upstream Murray 24.56 m 21/02/2018 14:45 Not measured Not measured Not measured 25.6°C 21/02/2018 14:45 200.9 μS/cm 21/02/2018 14:45 Not measured Full data
Weirs Torrumbarry Weir Downstream Murray 2.29 m 21/02/2018 15:45 6576 ML/Day 21/02/2018 15:45 Not measured Not measured 25.0°C 21/02/2018 15:45 88.8 μS/cm 21/02/2018 15:45 Not measured Full data
Weirs Lock 6 Upstream Murray 19.24 m 21/02/2018 14:45 Not measured Not measured Not measured 25.6°C 21/02/2018 14:45 224.3 μS/cm 21/02/2018 14:45 Not measured Full data
Weirs Yarrawonga Weir Upstream Murray 124.74 m 21/02/2018 15:45 Not measured Not measured Not measured Not measured Not measured 0.0 mm 21/02/2018 9:00 Full data
Weirs Yarrawonga Weir Downstream Murray 1.38 m 21/02/2018 16:00 7735 ML/Day 21/02/2018 16:00 Not measured Not measured 23.9°C 21/02/2018 16:00 68.6 μS/cm 21/02/2018 16:00 Not measured Full data
Weirs Torrumbarry Weir Downstream Murray 2.29 m 21/02/2018 15:45 6576 ML/Day 21/02/2018 15:45 Not measured Not measured 25.0°C 21/02/2018 15:45 88.8 μS/cm 21/02/2018 15:45 Not measured Full data
Weirs Lock 5 Downstream Murray 13.38 m 21/02/2018 14:45 Not measured Not measured Not measured Not measured Not measured Not measured Full data
Weirs Euston Weir Upstream Murray 47.73 m 21/02/2018 7:45 Not measured 39 GL 21/02/2018 7:45 Not measured Not measured Not measured 0.0 mm 20/02/2018 9:00 Full data
Weirs Torrumbarry Weir Downstream Murray 2.29 m 21/02/2018 15:45 6576 ML/Day 21/02/2018 15:45 Not measured Not measured 25.0°C 21/02/2018 15:45 88.8 μS/cm 21/02/2018 15:45 Not measured Full data
Weirs Lock 5 Upstream Murray 16.3 m 21/02/2018 14:45 Not measured Not measured Not measured 26.0°C 21/02/2018 14:45 234.9 μS/cm 21/02/2018 14:45 Not measured Full data